TimePDT,TemperatureF,Dew PointF,Humidity,Sea Level PressureIn,VisibilityMPH,Wind Direction,Wind SpeedMPH,Gust SpeedMPH,PrecipitationIn,Events,Conditions,WindDirDegrees,DateUTC
12:53 AM,42.1,37.0,82,30.34,10.0,Calm,Calm,-,N/A,,Clear,0,2012-09-12 07:53:00
1:53 AM,39.9,37.0,89,30.34,10.0,Calm,Calm,-,N/A,,Clear,0,2012-09-12 08:53:00
2:53 AM,44.1,39.0,82,30.34,10.0,Calm,Calm,-,N/A,,Clear,0,2012-09-12 09:53:00
3:53 AM,44.1,39.9,85,30.34,10.0,Calm,Calm,-,N/A,,Clear,0,2012-09-12 10:53:00
4:53 AM,52.0,46.9,83,30.35,10.0,NNW,5.8,-,N/A,,Clear,330,2012-09-12 11:53:00
5:53 AM,52.0,45.0,77,30.36,10.0,Variable,4.6,-,N/A,,Clear,0,2012-09-12 12:53:00
6:53 AM,48.0,45.0,89,30.38,10.0,Variable,3.5,-,N/A,,Clear,0,2012-09-12 13:53:00
7:53 AM,53.1,46.9,80,30.39,10.0,Calm,Calm,-,N/A,,Clear,0,2012-09-12 14:53:00
8:53 AM,55.9,48.0,75,30.40,10.0,North,8.1,-,N/A,,Clear,10,2012-09-12 15:53:00
9:53 AM,59.0,46.9,64,30.40,10.0,Variable,6.9,-,N/A,,Clear,0,2012-09-12 16:53:00
10:53 AM,60.1,46.9,62,30.40,10.0,NNW,4.6,-,N/A,,Clear,340,2012-09-12 17:53:00
11:53 AM,60.1,48.0,64,30.39,10.0,Variable,6.9,-,N/A,,Clear,0,2012-09-12 18:53:00
12:53 PM,61.0,48.0,62,30.38,10.0,NNW,8.1,-,N/A,,Clear,340,2012-09-12 19:53:00
1:53 PM,64.0,45.0,50,30.37,10.0,Variable,6.9,-,N/A,,Clear,0,2012-09-12 20:53:00
2:53 PM,64.9,44.1,47,30.35,10.0,North,9.2,-,N/A,,Clear,350,2012-09-12 21:53:00
3:53 PM,64.9,42.1,43,30.32,10.0,NNW,6.9,-,N/A,,Clear,330,2012-09-12 22:53:00
4:53 PM,66.0,39.9,38,30.30,10.0,North,6.9,-,N/A,,Clear,350,2012-09-12 23:53:00
5:53 PM,64.0,39.9,41,30.28,10.0,Variable,5.8,-,N/A,,Clear,0,2012-09-13 00:53:00
6:53 PM,61.0,41.0,48,30.27,10.0,Variable,4.6,-,N/A,,Clear,0,2012-09-13 01:53:00
7:53 PM,57.9,41.0,53,30.27,10.0,WNW,4.6,-,N/A,,Clear,300,2012-09-13 02:53:00
8:53 PM,55.9,42.1,60,30.28,10.0,NW,3.5,-,N/A,,Clear,320,2012-09-13 03:53:00
9:53 PM,52.0,43.0,71,30.28,10.0,West,3.5,-,N/A,,Clear,270,2012-09-13 04:53:00
10:53 PM,46.9,42.1,83,30.28,10.0,Calm,Calm,-,N/A,,Clear,0,2012-09-13 05:53:00
11:53 PM,48.0,43.0,83,30.27,10.0,Calm,Calm,-,N/A,,Clear,0,2012-09-13 06:53:00